Regional Weather Roundup
Issued by NWS

Home | Current Version | Previous Version | Graphics & Text | Print | Product List | Glossary Off
Versions: 1 2 3 4 5 6 7 8 9 10 11 12 13 14 15 16 17 18 19 20 21 22 23 24 25 26 27 28 29 30 31 32 33 34 35 36 37 38 39 40 41 42 43 44 45 46 47 48 49 50

000
ASUS43 KFSD 271302
RWRSD

WEATHER ROUNDUP FOR SOUTH DAKOTA
NATIONAL WEATHER SERVICE SIOUX FALLS SD
800 AM CDT TUE SEP 27 2016

NOTE: "FAIR" INDICATES FEW OR NO CLOUDS BELOW 12,000 FEET WITH NO
SIGNIFICANT WEATHER AND/OR OBSTRUCTIONS TO VISIBILITY.


SDZ001>005-009-010-012>017-271400-
NORTHWEST AND NORTH CENTRAL SOUTH DAKOTA

CITY           SKY/WX    TMP DP  RH WIND       PRES   REMARKS
BUFFALO          N/A     44  41  89 W6        29.98F
FAITH            N/A     50  42  74 SW7       30.04
MOBRIDGE       CLEAR     41  37  86 CALM      30.01R
$$

SDZ012>016-024>037-041>051-057-063-072>074-271400-
SOUTHWEST AND SOUTH CENTRAL SOUTH DAKOTA

CITY           SKY/WX    TMP DP  RH WIND       PRES   REMARKS
RAPID CTY ARPT CLEAR     45  39  79 W6        30.08F
PIERRE         CLEAR     43  38  82 W5        30.03R
CUSTER         CLEAR     51  38  60 NW6       30.19R
ELLSWORTH AFB  CLEAR     47  41  78 W8        30.07F
PHILIP         CLEAR     40  38  93 W3        30.06F
PINE RIDGE     CLOUDY    33  32  96 CALM      30.12F
WINNER         FAIR      46  39  76 SW7       30.06F
$$

SDZ004>011-016>023-039-040-271400-
NORTHEAST SOUTH DAKOTA

CITY           SKY/WX    TMP DP  RH WIND       PRES   REMARKS
ABERDEEN       CLEAR     43  36  76 W3        30.00S
WATERTOWN      CLEAR     45  38  76 W6        29.98S
SISSETON         N/A     44  36  73 NW8       29.94F
$$

SDZ017-020-022-023-036>040-048>070-271400-
SOUTHEAST SOUTH DAKOTA

CITY           SKY/WX    TMP DP  RH WIND       PRES   REMARKS
SIOUX FALLS    CLEAR     46  38  73 W6        30.01S
HURON          CLOUDY    39  35  86 CALM      30.02S
CHAMBERLAIN    CLEAR     46  42  86 W6        30.05S
MITCHELL       CLEAR     46  39  76 W7        30.03S
YANKTON        CLEAR     45  39  81 CALM      30.02S
$$

ABBREVIATIONS USED IN REMARKS
   TC - TEMPERATURE IN CELSIUS
  WCI - WIND CHILL INDEX
   HX - HEAT INDEX
  VSB - VISIBILITY




USA.gov is the U.S. government's official web portal to all federal, state and local government web resources and services.